Ludington, MI

8:15 PM EST on December 10, 2019 (GMT -0500)
Mason County

Weather History for KLDM - August, 2019

Change the Weather History Date:

Monday, August 12, 2019

  Actual Average Record
Temperature  
Mean Temperature 70 °F -  
Max Temperature 78 °F 78 °F 97 °F (1988)
Min Temperature 63 °F 54 °F 37 °F (1967)
Cooling Degree Days 6    
Growing Degree Days 20 (Base 50)    
Moisture  
Dew Point 65 °F    
Average Humidity 84    
Maximum Humidity 98    
Minimum Humidity 68    
Precipitation  
Precipitation 0.00 in - - ()
Sea Level Pressure  
Sea Level Pressure 29.89 in    
Wind  
Wind Speed 2 mph (NNW)    
Max Wind Speed 9 mph    
Max Gust Speed -    
Visibility 10 miles    
Events      
Averages and records for this station are not official NWS values.
T = Trace of Precipitation, MM = Missing Value Source: NWS Daily Summary

Daily Weather History Graph

Daily Weather History Graph

Search for Another Location

Airport or City:

Astronomy

Aug. 12, 2019 Rise Set
Actual Time 6:45 AM EDT 8:54 PM EDT
Civil Twilight 6:14 AM EDT 9:26 PM EDT
Nautical Twilight 5:35 AM EDT 10:05 PM EDT
Astronomical Twilight 4:52 AM EDT 10:47 PM EDT
Moon 7:28 PM EDT (8/12) 3:49 AM EDT (8/12)
Length of Visible Light 15h 11m
Length of Day
14h 08m
Waxing Gibbous, 93% of the Moon is Illuminated
Aug 12
Waxing Gibbous
Aug 15
Full
Aug 23
Last Quarter
Aug 30
New
Sep 5
First Quarter

Hourly Weather History & Observations

Time (EDT) Temp. Dew Point Humidity Pressure Visibility Wind Dir Wind Speed Gust Speed Precip Events Conditions
12:00 AM 66.2 °F 63.7 °F 92% 29.94 in 10.0 mi Calm Calm - N/A   Mostly Cloudy
12:18 AM 65.5 °F 63.0 °F 92% 29.94 in 10.0 mi Calm Calm - N/A   Mostly Cloudy
12:36 AM 65.3 °F 63.5 °F 94% 29.93 in 10.0 mi Calm Calm - N/A   Scattered Clouds
12:55 AM 64.2 °F 62.8 °F 95% 29.94 in 10.0 mi Calm Calm - N/A   Mostly Cloudy
1:15 AM 63.7 °F 62.6 °F 96% 29.94 in 10.0 mi Calm Calm - N/A   Mostly Cloudy
1:16 AM 63.7 °F 62.8 °F 97% 29.94 in 10.0 mi Calm Calm - N/A   Mostly Cloudy
1:38 AM 64.4 °F 63.1 °F 96% 29.94 in 10.0 mi Calm Calm - N/A   Mostly Cloudy
1:57 AM 63.5 °F 62.6 °F 97% 29.94 in 10.0 mi Calm Calm - N/A   Overcast
2:15 AM 64.9 °F 63.5 °F 95% 29.94 in 10.0 mi Calm Calm - N/A   Overcast
2:35 AM 65.3 °F 63.5 °F 94% 29.94 in 10.0 mi Calm Calm - N/A   Overcast
2:36 AM 65.1 °F 63.5 °F 94% 29.94 in 10.0 mi Calm Calm - N/A   Overcast
2:55 AM 65.3 °F 63.5 °F 94% 29.93 in 10.0 mi Calm Calm - N/A   Overcast
3:00 AM 65.3 °F 63.5 °F 94% 29.93 in 10.0 mi Calm Calm - N/A   Overcast
3:18 AM 65.3 °F 64.0 °F 96% 29.92 in 10.0 mi Calm Calm - N/A   Overcast
3:36 AM 65.1 °F 63.9 °F 96% 29.92 in 10.0 mi Calm Calm - N/A   Overcast
3:55 AM 65.7 °F 64.4 °F 96% 29.92 in 10.0 mi Calm Calm - N/A   Overcast
4:15 AM 66.2 °F 64.0 °F 93% 29.92 in 10.0 mi Calm Calm - N/A   Overcast
4:16 AM 66.2 °F 64.0 °F 93% 29.92 in 10.0 mi Calm Calm - N/A   Overcast
4:38 AM 66.4 °F 64.2 °F 93% 29.91 in 10.0 mi Calm Calm - N/A   Overcast
4:57 AM 65.7 °F 64.4 °F 96% 29.90 in 10.0 mi Calm Calm - N/A   Overcast
5:15 AM 65.5 °F 63.9 °F 94% 29.90 in 10.0 mi Calm Calm - N/A   Overcast
5:35 AM 65.5 °F 64.0 °F 95% 29.91 in 10.0 mi Calm Calm - N/A   Overcast
5:36 AM 65.5 °F 63.9 °F 94% 29.91 in 10.0 mi Calm Calm - N/A   Overcast
5:55 AM 65.3 °F 63.9 °F 95% 29.90 in 10.0 mi Calm Calm - N/A   Overcast
6:00 AM 65.3 °F 63.9 °F 95% 29.90 in 10.0 mi Calm Calm - N/A   Overcast
6:18 AM 64.4 °F 63.5 °F 97% 29.90 in 10.0 mi Calm Calm - N/A   Mostly Cloudy
6:36 AM 63.5 °F 62.8 °F 97% 29.91 in 7.0 mi Calm Calm - N/A   Scattered Clouds
6:55 AM 63.5 °F 62.6 °F 97% 29.91 in 7.0 mi Calm Calm - N/A   Clear
7:15 AM 63.0 °F 62.2 °F 97% 29.92 in 1.0 mi Calm Calm - N/A   Mist
7:16 AM 63.0 °F 62.2 °F 97% 29.92 in 1.5 mi Calm Calm - N/A   Mist
7:38 AM 63.1 °F 62.4 °F 97% 29.92 in 7.0 mi Calm Calm - N/A   Clear
7:57 AM 64.9 °F 64.2 °F 98% 29.92 in 10.0 mi Calm Calm - N/A   Clear
8:15 AM 67.1 °F 64.4 °F 91% 29.92 in 10.0 mi Calm Calm - N/A   Clear
8:35 AM 69.3 °F 63.5 °F 82% 29.92 in 10.0 mi Calm Calm - N/A   Clear
8:36 AM 69.1 °F 63.5 °F 82% 29.92 in 10.0 mi Calm Calm - N/A   Scattered Clouds
8:55 AM 70.2 °F 63.5 °F 79% 29.92 in 10.0 mi Calm Calm - N/A   Mostly Cloudy
9:18 AM 70.7 °F 64.6 °F 81% 29.92 in 10.0 mi Calm Calm - N/A   Overcast
9:36 AM 71.6 °F 64.9 °F 79% 29.91 in 10.0 mi Calm Calm - N/A   Overcast
9:55 AM 73.0 °F 65.5 °F 77% 29.91 in 10.0 mi NE 3.5 mph - N/A   Mostly Cloudy
10:15 AM 74.1 °F 65.1 °F 73% 29.91 in 10.0 mi Calm Calm - N/A   Clear
10:39 AM 75.0 °F 65.1 °F 71% 29.91 in 10.0 mi Calm Calm - N/A   Clear
10:57 AM 75.6 °F 65.1 °F 70% 29.91 in 10.0 mi Calm Calm - N/A   Clear
11:15 AM 76.5 °F 65.7 °F 69% 29.90 in 10.0 mi Calm Calm - N/A   Clear
11:16 AM 76.6 °F 65.8 °F 69% 29.90 in 10.0 mi Calm Calm - N/A   Clear
11:35 AM 76.6 °F 65.5 °F 68% 29.90 in 10.0 mi SSW 3.5 mph - N/A   Scattered Clouds
11:55 AM 77.5 °F 66.7 °F 69% 29.91 in 10.0 mi WSW 5.8 mph - N/A   Scattered Clouds
12:18 PM 77.7 °F 66.6 °F 68% 29.91 in 10.0 mi WSW 5.8 mph - N/A   Clear
12:35 PM 78.1 °F 67.5 °F 70% 29.90 in 10.0 mi WNW 5.8 mph - N/A   Scattered Clouds
12:55 PM 78.1 °F 67.6 °F 70% 29.91 in 10.0 mi West 6.9 mph - N/A   Mostly Cloudy
12:56 PM 78.3 °F 67.6 °F 70% 29.91 in 10.0 mi West 6.9 mph - N/A   Mostly Cloudy
1:15 PM 76.6 °F 65.7 °F 69% 29.90 in 10.0 mi West 8.1 mph - N/A   Overcast
1:39 PM 76.8 °F 66.9 °F 71% 29.90 in 10.0 mi NW 5.8 mph - N/A   Mostly Cloudy
1:57 PM 76.1 °F 66.7 °F 73% 29.89 in 10.0 mi NW 4.6 mph - N/A   Scattered Clouds
2:15 PM 76.1 °F 67.1 °F 74% 29.88 in 10.0 mi NW 5.8 mph - N/A   Clear
2:16 PM 76.1 °F 66.9 °F 73% 29.88 in 10.0 mi NW 5.8 mph - N/A   Clear
2:35 PM 76.8 °F 66.7 °F 71% 29.87 in 10.0 mi WNW 5.8 mph - N/A   Clear
2:36 PM 76.8 °F 66.9 °F 71% 29.87 in 10.0 mi WNW 5.8 mph - N/A   Clear
3:17 PM 77.0 °F 66.9 °F 71% 29.86 in 10.0 mi NNW 3.5 mph - N/A   Clear
3:36 PM 77.2 °F 67.6 °F 72% 29.85 in 10.0 mi NNW 4.6 mph - N/A   Clear
3:55 PM 76.6 °F 67.6 °F 74% 29.85 in 10.0 mi NNW 6.9 mph - N/A   Clear
4:15 PM 77.7 °F 68.2 °F 72% 29.85 in 10.0 mi NNW 6.9 mph - N/A   Scattered Clouds
4:16 PM 77.5 °F 68.4 °F 73% 29.85 in 10.0 mi North 6.9 mph - N/A   Scattered Clouds
4:39 PM 77.5 °F 68.0 °F 72% 29.85 in 10.0 mi North 5.8 mph - N/A   Clear
4:57 PM 77.4 °F 68.0 °F 73% 29.84 in 10.0 mi NNW 8.1 mph - N/A   Clear
5:15 PM 75.2 °F 67.3 °F 76% 29.85 in 10.0 mi NW 6.9 mph - N/A   Clear
5:16 PM 75.2 °F 67.5 °F 77% 29.84 in 10.0 mi NNW 6.9 mph - N/A   Clear
5:35 PM 74.8 °F 67.8 °F 79% 29.85 in 10.0 mi North 6.9 mph - N/A   Clear
5:36 PM 74.8 °F 67.6 °F 78% 29.85 in 10.0 mi North 6.9 mph - N/A   Clear
5:55 PM 74.5 °F 67.3 °F 78% 29.85 in 10.0 mi North 9.2 mph - N/A   Clear
6:00 PM 74.3 °F 66.9 °F 78% 29.85 in 10.0 mi North 9.2 mph - N/A   Clear
6:18 PM 73.4 °F 67.1 °F 81% 29.85 in 10.0 mi North 6.9 mph - N/A   Clear
6:36 PM 73.9 °F 66.9 °F 79% 29.85 in 10.0 mi North 6.9 mph - N/A   Clear
6:55 PM 73.4 °F 65.3 °F 76% 29.85 in 10.0 mi North 5.8 mph - N/A   Clear
6:56 PM 73.4 °F 65.1 °F 75% 29.85 in 10.0 mi North 5.8 mph - N/A   Clear
7:15 PM 74.3 °F 65.1 °F 73% 29.85 in 10.0 mi North 5.8 mph - N/A   Clear
7:16 PM 74.1 °F 64.9 °F 73% 29.85 in 10.0 mi North 6.9 mph - N/A   Clear
7:39 PM 74.3 °F 65.7 °F 74% 29.84 in 10.0 mi North 5.8 mph - N/A   Clear
7:57 PM 73.4 °F 65.3 °F 76% 29.84 in 10.0 mi NNE 3.5 mph - N/A   Clear
8:15 PM 72.9 °F 64.9 °F 76% 29.84 in 10.0 mi Calm Calm - N/A   Clear
8:35 PM 71.4 °F 64.9 °F 80% 29.84 in 10.0 mi Calm Calm - N/A   Clear
8:36 PM 71.4 °F 64.9 °F 80% 29.84 in 10.0 mi Calm Calm - N/A   Clear
8:55 PM 70.2 °F 65.3 °F 85% 29.84 in 10.0 mi NNE 3.5 mph - N/A   Clear
9:00 PM 69.8 °F 65.3 °F 86% 29.84 in 10.0 mi North 4.6 mph - N/A   Clear
9:18 PM 68.9 °F 65.3 °F 88% 29.84 in 10.0 mi Calm Calm - N/A   Clear
9:36 PM 68.0 °F 65.5 °F 92% 29.84 in 10.0 mi Calm Calm - N/A   Clear
9:55 PM 68.0 °F 65.8 °F 93% 29.84 in 10.0 mi Calm Calm - N/A   Clear
9:56 PM 68.0 °F 65.7 °F 92% 29.84 in 10.0 mi Calm Calm - N/A   Clear
10:15 PM 66.7 °F 65.1 °F 95% 29.84 in 10.0 mi Calm Calm - N/A   Clear
10:16 PM 66.7 °F 64.9 °F 94% 29.84 in 10.0 mi Calm Calm - N/A   Clear
10:57 PM 66.6 °F 65.5 °F 96% 29.83 in 10.0 mi Calm Calm - N/A   Clear
11:15 PM 66.2 °F 65.5 °F 98% 29.84 in 10.0 mi Calm Calm - N/A   Clear
11:35 PM 65.8 °F 65.1 °F 98% 29.83 in 10.0 mi North 4.6 mph - N/A   Clear
11:36 PM 65.7 °F 64.9 °F 98% 29.83 in 10.0 mi North 4.6 mph - N/A   Clear
11:55 PM 65.8 °F 64.8 °F 96% 29.83 in 10.0 mi North 3.5 mph - N/A   Clear
11:59 PM 66.0 °F 64.8 °F 96% 29.83 in 10.0 mi Calm Calm - N/A   Clear